Location: San Vito
(41.8833°N, 12.9833°E)
Time: 18:22:03
(UTC+00:00)

CZ-4B DEB - Pass Details

Date: 17 November 2019
Orbit: 840 x 862 km, 99.1° (Epoch: 10 December)

Event Time Altitude Azimuth Distance (km) Brightness Sun altitude
Rises 04:22:13 0° 15° (NNE) 3,407 7.4 -18.1°
Reaches altitude 10° 04:24:35 10° 16° (NNE) 2,469 6.7 -17.6°
Maximum altitude 04:30:04 81° 104° (ESE) 859 4.3 -16.6°
Drops below altitude 10° 04:35:33 10° 192° (SSW) 2,464 6.6 -15.6°
Sets 04:37:54 0° 193° (SSW) 3,398 7.3 -15.2°
